User: anonymous   Login
Location: Devargunta
(16.7631°N, 80.9077°E)
Time: 08:52:25
(UTC+00:00)
Language:

Cosmos 1346 Rocket - Orbit

View from above orbital plane
View from above orbital plane
View from above satellite
View from above satellite

Ground track
Ground track

The orbit data is extracted from the following two-line orbital elements,

1 13121U 82027B   21103.14440831  .00000301  00000-0  17396-4 0  9993
2 13121  81.1726 314.6204 0015111 120.7385 239.5331 15.09148693127473
Epoch (UTC): 13 April 2021 03:27:56
Eccentricity: 0.0015111
inclination: 81.1726°
perigee height: 528 km
apogee height: 549 km
right ascension of ascending node: 314.6204°
argument of perigee: 120.7385°
revolutions per day: 15.09148693
mean anomaly at epoch: 239.5331°
orbit number at epoch: 12747

The dashed part of the orbit path shows where the satellite is in the earth's shadow,  

DLR